Location: Amsterdam
(30.7274°N, 84.4357°W)
Time: 14:37:27
(UTC+00:00)

Tiros 1 despin weight - Pass Details

Date: 19 February 2026
Orbit: 556 x 593 km, 48.2° (Epoch: 13 March)

Event Time Altitude Azimuth Distance (km) Brightness Sun altitude
Rises 01:16:16 0° 323° (NW) 2,731 ? -23.9°
Reaches altitude 10° 01:19:09 10° 344° (NNW) 1,837 ? -24.5°
Enters shadow 01:20:13 14° 356° (N) 1,601 ? -24.7°
